[[{"header":{"parameterUnit":"m.s-1","parameterCategory":2,"la1":30.2991,"la2":30.254,"lo1":-89.0895,"lo2":-89.0444,"dy":0.0017,"dx":0.0017,"nx":28,"ny":28,"refTime":"2025-12-28T03:00:00:Z","depth":"0","parameterNumber":2,"parameterNumberName":"U-component_of_CURRENTS"},"data":[0,0,0,0,0,0,0,0,0,0,0,0,0,0,0,0,0,0,0,0,0,0,0,0,0,0,0,0,0,0,0,0,0,0,0,0,0,0,0,0,0,0,0,0,0,0,0,0,0,0,0,0,0,0,0,0,0,0,0.2911,0.2911,0,0.2963,0.2963,0.2964,0.2956,0.2955,0.2954,0.2953,0.3204,0.3211,0.3219,0,0,0,0,0,0,0,0,0,0,0,0,0,0.2865,0.2866,0.2911,0.2911,0.2912,0.2962,0.2963,0.2964,0.2956,0.2955,0.2954,0.2953,0.3202,0.321,0.3219,0,0,0,0,0,0,0,0,0,0,0,0,0,0.2898,0.2866,0.291,0.2914,0.2915,0.2962,0.2963,0.2964,0.2956,0.2955,0.2954,0.2952,0.3199,0.321,0.3221,0.3317,0,0,0.3255,0.326,0,0,0,0,0,0,0,0,0.2896,0.2899,0.2913,0.2914,0.2915,0.2951,0.3039,0.3092,0.2957,0.2941,0.2953,0.2952,0.3139,0.3155,0.3165,0.3329,0.334,0.3256,0.3263,0.3268,0.3271,0,0,0,0,0,0,0,0.2893,0.2897,0.2931,0.2914,0.2915,0.2934,0.2936,0.3048,0.3051,0.2942,0.2941,0.2947,0.3141,0.3154,0.3172,0.3343,0.3256,0.3266,0.3273,0.3277,0.3597,0.3598,0,0,0,0,0,0,0.2885,0.2895,0.293,0.2933,0.2901,0.2935,0.2938,0.2941,0.3045,0.3058,0.2948,0.2947,0.3135,0.3158,0.3181,0.3323,0.3268,0.3278,0.3285,0.3595,0.3597,0.3599,0,0,0,0,0,0,0.2884,0.2888,0.2928,0.2915,0.2921,0.2937,0.2941,0.2943,0.2958,0.3048,0.3064,0.2962,0.3135,0.3165,0.3274,0.3332,0.3283,0.3294,0.3593,0.3596,0.3598,0.3595,0,0,0,0,0,0,0.2882,0.2887,0.2892,0.2914,0.2922,0.2968,0.2942,0.2945,0.2964,0.2962,0.3066,0.3086,0.3136,0.3257,0.3285,0.3347,0.3302,0.3591,0.3594,0.3597,0.3593,0.3598,0.3601,0,0,0,0,0,0.2881,0.2894,0.2892,0.2897,0.2927,0.297,0.2977,0.2983,0.2966,0.2988,0.3041,0.3083,0.3298,0.3268,0.3301,0.3367,0.3589,0.3593,0.3597,0.3591,0.3597,0.3601,0,0,0,0,0,0,0.2875,0.2895,0.2894,0.2911,0.2943,0.2968,0.2988,0.299,0.3046,0.3044,0.3115,0.3142,0.3258,0.3312,0.3277,0.3464,0.3449,0.346,0.3434,0.344,0.3443,0.3432,0.3312,0,0,0,0,0,0.2877,0.289,0.2918,0.2933,0.295,0.297,0.2988,0.2993,0.3039,0.3058,0.3125,0.3206,0.3302,0.3365,0.3451,0.3569,0.3564,0.3629,0.3633,0.3636,0.3648,0.368,0.3687,0.3612,0.3612,0.3612,0,0,0.2874,0.2891,0.2895,0.2934,0.2954,0.3009,0.2978,0.3008,0.3065,0.3087,0.3185,0.323,0.3334,0.3446,0.3505,0.35,0.3645,0.3641,0.3643,0.3654,0.3685,0.3692,0.3698,0.3614,0.3614,0.3613,0,0,0.2883,0.2897,0.2914,0.2953,0.299,0.3028,0.304,0.3076,0.3104,0.3193,0.322,0.3287,0.3438,0.3508,0.3569,0.3657,0.366,0.3688,0.3716,0.3747,0.3752,0.3758,0.3706,0.3707,0.3695,0.3695,0.3695,0,0.288,0.2907,0.2929,0.2969,0.3014,0.3044,0.3095,0.3149,0.3214,0.3245,0.3229,0.3399,0.3473,0.3617,0.363,0.3671,0.3649,0.3687,0.3749,0.3755,0.376,0.3706,0.3707,0.3696,0.3696,0.3696,0.3696,0,0.2904,0.294,0.2961,0.3033,0.3094,0.3138,0.3221,0.3279,0.3309,0.3338,0.3445,0.3513,0.3606,0.3642,0.3669,0.3763,0.3717,0.374,0.3728,0.3767,0.3708,0.3709,0.3696,0.3696,0.3696,0.3696,0,0,0.2862,0.2955,0.2965,0.3006,0.3128,0.3172,0.3302,0.3402,0.346,0.3513,0.357,0.3707,0.3687,0.3753,0.3789,0.3813,0.3808,0.3786,0.3787,0.3716,0.3803,0.362,0.3603,0.3832,0.3834,0.3835,0.3724,0,0.2874,0.2938,0.3012,0.3116,0.3162,0.3269,0.3394,0.3489,0.3555,0.3617,0.367,0.3741,0.3755,0.3774,0.381,0.3823,0.382,0.3831,0.3793,0.379,0.361,0.3603,0.3409,0.3283,0.3725,0.3725,0.3726,0,0.2877,0.2922,0.3,0.3145,0.3181,0.326,0.3432,0.3534,0.3653,0.3693,0.3754,0.3786,0.3856,0.3833,0.3878,0.3877,0.3839,0.3824,0.382,0.3659,0.3611,0.333,0.3268,0.322,0.3727,0.3727,0.3727,0,0.281,0.2925,0.2982,0.3028,0.32,0.3263,0.336,0.3518,0.3591,0.37,0.3721,0.383,0.3833,0.3863,0.3843,0.386,0.3825,0.3854,0.3646,0.363,0.3465,0.3431,0.3342,0.3857,0.3857,0.3857,0.3858,0,0.2801,0.2849,0.2933,0.2964,0.3062,0.3187,0.3294,0.3421,0.3532,0.3589,0.3712,0.3748,0.3836,0.3835,0.3833,0.3716,0.3824,0.3633,0.36,0.345,0.3418,0.3369,0.3386,0.3853,0.3854,0.3855,0.3856,0,0.2745,0.2797,0.2862,0.2988,0.3026,0.3083,0.3227,0.33,0.3416,0.3482,0.3506,0.3646,0.3649,0.3694,0.3703,0.3651,0.348,0.3529,0.3296,0.3237,0.2983,0.3006,0.2748,0.2697,0.3279,0.3274,0.327,0,0.2723,0.2738,0.2839,0.2878,0.2931,0.3008,0.3086,0.3222,0.3288,0.3411,0.343,0.3454,0.3464,0.3392,0.3317,0.3235,0.3246,0.3,0.3016,0.2916,0.2922,0.2847,0.2823,0.2776,0.2768,0.2762,0.2756,0,0.2695,0.272,0.2782,0.2831,0.2885,0.296,0.3045,0.3063,0.3209,0.324,0.3262,0.3254,0.3164,0.2993,0.2879,0.2832,0.2842,0.2857,0.2852,0.2584,0.2405,0.2356,0.2863,0.2699,0.2704,0.2709,0.2712,0.2714,0.2673,0.2693,0.2746,0.2797,0.2861,0.2896,0.2879,0.2947,0.297,0.2947,0.3032,0.2904,0.2768,0.2568,0.2506,0.2268,0.237,0.2201,0.2249,0.2191,0.21,0.2422,0.2171,0.2174,0.2176,0.2178,0.218,0,0.2624,0.2654,0.2709,0.2745,0.2759,0.2819,0.2854,0.278,0.2708,0.2688,0.2626,0.2383,0.2184,0.2075,0.1824,0.1709,0.1683,0.1687,0.1607,0.1634,0.1992,0.1934,0.1502,0.1502,0.1502,0.1502,0.1502,0.1502,0.2602,0.2612,0.2625,0.2613,0.2634,0.2567,0.2536,0.2437,0.2377,0.2128,0.1932,0.1862,0.1785,0.1586,0.1405,0.1378,0.1362,0.1185,0.1327,0.1662,0.1717,0.177,0.172,0.125,0.125,0.0862,0.0859,0.0857]},{"header":{"parameterUnit":"m.s-1","parameterCategory":2,"la1":30.2991,"la2":30.254,"lo1":-89.0895,"lo2":-89.0444,"dy":0.0017,"dx":0.0017,"nx":28,"ny":28,"refTime":"2025-12-28T03:00:00:Z","depth":"0","parameterNumber":3,"parameterNumberName":"V-component_of_CURRENTS"},"data":[0,0,0,0,0,0,0,0,0,0,0,0,0,0,0,0,0,0,0,0,0,0,0,0,0,0,0,0,0,0,0,0,0,0,0,0,0,0,0,0,0,0,0,0,0,0,0,0,0,0,0,0,0,0,0,0,0,0,-0.0094,-0.0094,0,-0.0125,-0.0126,-0.0126,-0.0142,-0.0142,-0.0141,-0.0141,-0.0262,-0.0265,-0.0268,0,0,0,0,0,0,0,0,0,0,0,0,0,-0.0072,-0.0073,-0.0094,-0.0094,-0.0094,-0.0125,-0.0126,-0.0126,-0.0142,-0.0142,-0.0141,-0.0141,-0.026,-0.0264,-0.0268,0,0,0,0,0,0,0,0,0,0,0,0,0,-0.0092,-0.0073,-0.0094,-0.0105,-0.0106,-0.0125,-0.0126,-0.0126,-0.0142,-0.0142,-0.0141,-0.0141,-0.0259,-0.0264,-0.0269,-0.0303,0,0,-0.0284,-0.0286,0,0,0,0,0,0,0,0,-0.009,-0.0092,-0.0103,-0.0104,-0.0105,-0.0128,-0.0162,-0.0189,-0.0142,-0.0129,-0.0141,-0.0141,-0.0225,-0.0232,-0.0239,-0.0308,-0.0313,-0.0284,-0.0287,-0.029,-0.0291,0,0,0,0,0,0,0,-0.0089,-0.0091,-0.0107,-0.0103,-0.0105,-0.0117,-0.0119,-0.0167,-0.018,-0.013,-0.0131,-0.0133,-0.0226,-0.0234,-0.0242,-0.0315,-0.0284,-0.0289,-0.0292,-0.0294,-0.0411,-0.0411,0,0,0,0,0,0,-0.0082,-0.009,-0.0106,-0.0108,-0.0096,-0.0117,-0.012,-0.0122,-0.0178,-0.0185,-0.0133,-0.0134,-0.0226,-0.0236,-0.0247,-0.0272,-0.0289,-0.0294,-0.0297,-0.0411,-0.0411,-0.0411,0,0,0,0,0,0,-0.0081,-0.0083,-0.0105,-0.0099,-0.0102,-0.0117,-0.012,-0.0123,-0.013,-0.0178,-0.0188,-0.0137,-0.0226,-0.024,-0.0284,-0.0278,-0.0296,-0.0301,-0.0411,-0.0411,-0.0411,-0.0336,0,0,0,0,0,0,-0.008,-0.0082,-0.0084,-0.0098,-0.0102,-0.011,-0.012,-0.0123,-0.0131,-0.0132,-0.0186,-0.0196,-0.0227,-0.0276,-0.0289,-0.0285,-0.0305,-0.0411,-0.0411,-0.0411,-0.0338,-0.0333,-0.0329,0,0,0,0,0,-0.008,-0.0076,-0.0084,-0.0086,-0.0103,-0.011,-0.0113,-0.0124,-0.0131,-0.0131,-0.0168,-0.0194,-0.0287,-0.0281,-0.0295,-0.0293,-0.0411,-0.0411,-0.0411,-0.034,-0.0334,-0.0329,0,0,0,0,0,0,-0.0069,-0.0078,-0.0087,-0.0087,-0.0096,-0.0112,-0.0112,-0.0123,-0.0151,-0.0153,-0.0202,-0.0215,-0.0248,-0.0287,-0.0279,-0.0328,-0.0352,-0.0355,-0.0293,-0.0288,-0.0284,-0.0235,-0.0309,0,0,0,0,0,-0.0068,-0.0065,-0.0079,-0.0079,-0.0083,-0.01,-0.0105,-0.011,-0.0134,-0.0145,-0.0184,-0.0227,-0.0262,-0.0287,-0.0325,-0.036,-0.0339,-0.0368,-0.0364,-0.036,-0.0331,-0.0265,-0.025,-0.0413,-0.0413,-0.0413,0,0,-0.0062,-0.0068,-0.0066,-0.0077,-0.0085,-0.0087,-0.0102,-0.0103,-0.0106,-0.0157,-0.0181,-0.0215,-0.0268,-0.0295,-0.0315,-0.0328,-0.0311,-0.036,-0.0356,-0.0329,-0.0263,-0.0247,-0.0232,-0.0413,-0.0413,-0.0413,0,0,-0.0041,-0.0055,-0.0043,-0.005,-0.0058,-0.0073,-0.0073,-0.009,-0.0098,-0.0125,-0.0156,-0.0173,-0.025,-0.0262,-0.0285,-0.0283,-0.0286,-0.0315,-0.0256,-0.0193,-0.0178,-0.0164,-0.014,-0.0124,-0.0315,-0.0315,-0.0315,0,-0.0035,-0.0022,-0.0041,-0.0034,-0.0037,-0.0066,-0.0057,-0.0074,-0.0103,-0.0105,-0.0125,-0.0173,-0.0222,-0.0226,-0.0226,-0.0268,-0.0244,-0.0269,-0.0181,-0.0167,-0.0154,-0.0132,-0.0116,-0.0312,-0.0312,-0.0312,-0.0313,0,-0.0003,0.0003,0.001,0.0005,-0.0006,0.0001,-0.0026,-0.0037,-0.0058,-0.0068,-0.0071,-0.0108,-0.0128,-0.0155,-0.0195,-0.0141,-0.016,-0.0176,-0.0181,-0.0132,-0.0115,-0.0098,-0.0307,-0.0308,-0.0309,-0.031,0,0,0.0022,0.0032,0.0035,0.0045,0.0019,0.0019,0.0004,-0.0004,0.0011,-0.0014,0.0029,-0.003,-0.0028,-0.0051,-0.0087,-0.0039,0.0051,-0.0066,-0.0065,-0.0019,0.0176,0.0139,0.0152,0.0061,0.0065,0.0068,0.0143,0,0.0055,0.009,0.0074,0.0093,0.0107,0.0071,0.0066,0.0052,0.0039,0.007,0.0062,0.0076,0.0002,0.0016,0.0051,0.0062,0.01,0.0031,0.0101,0.0103,0.0086,0.0173,0.0175,0.0243,0.0159,0.0162,0.0163,0,0.009,0.0111,0.0144,0.0157,0.0158,0.0156,0.0156,0.0155,0.0171,0.0172,0.0194,0.0187,0.0231,0.0185,0.0245,0.0207,0.0199,0.0207,0.021,0.0171,0.0098,0.0182,0.0275,0.0248,0.0188,0.0186,0.0184,0,0.013,0.0157,0.0188,0.019,0.0193,0.02,0.0199,0.0193,0.0223,0.0261,0.0311,0.033,0.0387,0.0396,0.0362,0.0325,0.0453,0.0399,0.0355,0.035,0.0365,0.0356,0.0469,0.0469,0.0469,0.0469,0.0469,0,0.0169,0.0195,0.0216,0.0234,0.0275,0.0258,0.0301,0.0297,0.0352,0.0427,0.0387,0.0474,0.0455,0.0497,0.0444,0.0455,0.051,0.0403,0.0392,0.0383,0.0375,0.0359,0.0321,0.0472,0.0471,0.0471,0.047,0,0.0202,0.0217,0.026,0.0286,0.0297,0.0328,0.0374,0.0422,0.0447,0.0564,0.0594,0.0633,0.0677,0.0624,0.0657,0.0575,0.0562,0.0548,0.0514,0.0498,0.0412,0.0376,0.0485,0.0492,0.0534,0.0534,0.0534,0,0.0224,0.0254,0.0303,0.0337,0.0351,0.0397,0.0439,0.047,0.0539,0.0665,0.0754,0.0817,0.0872,0.0868,0.0746,0.066,0.0604,0.0585,0.0513,0.0449,0.0402,0.0383,0.038,0.055,0.055,0.055,0.055,0,0.0272,0.0288,0.0324,0.0398,0.0451,0.0509,0.0583,0.066,0.0734,0.0842,0.0999,0.106,0.1029,0.0963,0.0805,0.0724,0.0577,0.0582,0.0561,0.0478,0.0427,0.0413,0.042,0.0551,0.055,0.055,0.055,0.055,0.0309,0.0345,0.0401,0.0465,0.0532,0.0626,0.0698,0.0807,0.0949,0.1126,0.1173,0.1274,0.1139,0.0934,0.0821,0.0598,0.0597,0.0524,0.0499,0.0496,0.0478,0.0462,0.0543,0.0543,0.0543,0.0543,0.0543,0,0.036,0.0402,0.0468,0.0556,0.0644,0.066,0.0801,0.0898,0.1089,0.1233,0.1361,0.1343,0.1182,0.0974,0.0673,0.0543,0.0503,0.0476,0.047,0.0481,0.0519,0.0491,0.0513,0.0513,0.0513,0.0513,0.0513,0.0513,0.0394,0.0462,0.0493,0.0637,0.0704,0.0827,0.0915,0.1075,0.12,0.1375,0.1429,0.1452,0.1312,0.0847,0.0575,0.0504,0.0456,0.0414,0.0409,0.0426,0.0428,0.0431,0.04,0.0402,0.0402,0.04,0.0399,0.0399]}],[{"header":{"parameterUnit":"m.s-1","parameterCategory":2,"la1":30.2991,"la2":30.254,"lo1":-89.0895,"lo2":-89.0444,"dy":0.0017,"dx":0.0017,"nx":28,"ny":28,"refTime":"2025-12-28T03:00:00:Z","depth":"2","parameterNumber":2,"parameterNumberName":"U-component_of_CURRENTS"},"data":[0,0,0,0,0,0,0,0,0,0,0,0,0,0,0,0,0,0,0,0,0,0,0,0,0,0,0,0,0,0,0,0,0,0,0,0,0,0,0,0,0,0,0,0,0,0,0,0,0,0,0,0,0,0,0,0,0,0,0.1948,0.1948,0,0.1994,0.1995,0.1995,0.1969,0.1967,0.1966,0.1965,0.1951,0.1952,0.1952,0,0,0,0,0,0,0,0,0,0,0,0,0,0.1935,0.1935,0.1948,0.1948,0.1949,0.1994,0.1995,0.1995,0.1969,0.1967,0.1966,0.1965,0.1951,0.1952,0.1952,0,0,0,0,0,0,0,0,0,0,0,0,0,0.1956,0.1935,0.1948,0.1942,0.1943,0.1994,0.1995,0.1995,0.1969,0.1967,0.1966,0.1964,0.195,0.1952,0.1953,0.1994,0,0,0.1956,0.1956,0,0,0,0,0,0,0,0,0.1954,0.1956,0.1942,0.1943,0.1943,0.1975,0.1985,0.1992,0.197,0.1958,0.1965,0.1963,0.1956,0.1956,0.1968,0.1994,0.1993,0.1956,0.1957,0.1957,0.1957,0,0,0,0,0,0,0,0.1953,0.1954,0.1965,0.1943,0.1944,0.1972,0.1972,0.1987,0.1964,0.1958,0.1957,0.1965,0.1955,0.1967,0.1967,0.1993,0.1956,0.1957,0.1958,0.1958,0.206,0.2062,0,0,0,0,0,0,0.1947,0.1953,0.1963,0.1966,0.1946,0.1973,0.1973,0.1965,0.1965,0.1964,0.1966,0.1964,0.1966,0.1966,0.1966,0.2024,0.1957,0.1958,0.1959,0.2058,0.206,0.2063,0,0,0,0,0,0,0.1946,0.1947,0.1961,0.1963,0.1966,0.1975,0.1967,0.1967,0.1967,0.1972,0.1969,0.1964,0.1964,0.1965,0.1956,0.2022,0.1959,0.196,0.2055,0.2059,0.2062,0.2133,0,0,0,0,0,0,0.1945,0.1946,0.1952,0.1962,0.1966,0.1958,0.1969,0.197,0.1976,0.1973,0.197,0.1967,0.1963,0.1954,0.1957,0.2023,0.196,0.2053,0.2057,0.2061,0.2128,0.2139,0.2147,0,0,0,0,0,0.1944,0.1948,0.1952,0.1954,0.1969,0.1957,0.1961,0.1962,0.1978,0.196,0.1966,0.1967,0.1983,0.1955,0.1958,0.2026,0.2051,0.2056,0.206,0.2124,0.2137,0.2147,0,0,0,0,0,0,0.1932,0.1946,0.195,0.1954,0.1943,0.1952,0.1967,0.1964,0.1962,0.1985,0.1969,0.1966,0.1987,0.1992,0.1963,0.2069,0.2028,0.2034,0.2076,0.2088,0.2097,0.2063,0.1961,0,0,0,0,0,0.1938,0.1947,0.1947,0.1945,0.1955,0.1965,0.1972,0.1976,0.1976,0.1975,0.1979,0.2002,0.2017,0.2033,0.2039,0.209,0.2091,0.2144,0.2154,0.2162,0.2137,0.2216,0.223,0.2078,0.2078,0.2078,0,0,0.1937,0.1943,0.195,0.1945,0.196,0.1975,0.1963,0.1984,0.1987,0.1978,0.2,0.202,0.2029,0.2077,0.2095,0.2089,0.2206,0.2168,0.2174,0.2145,0.2223,0.2237,0.225,0.2081,0.208,0.208,0,0,0.194,0.1945,0.1963,0.1976,0.2001,0.1994,0.1994,0.2017,0.2014,0.2038,0.2043,0.2078,0.2115,0.2133,0.2147,0.2211,0.2236,0.2255,0.2297,0.2376,0.2388,0.24,0.2416,0.2428,0.2282,0.2282,0.2283,0,0.1947,0.1945,0.196,0.1995,0.2008,0.1999,0.202,0.202,0.2033,0.2067,0.2049,0.2161,0.2137,0.2219,0.222,0.2232,0.2269,0.2253,0.2388,0.2399,0.2409,0.2423,0.2436,0.2286,0.2286,0.2286,0.2285,0,0.1966,0.198,0.1994,0.2024,0.2044,0.2049,0.2066,0.2088,0.2103,0.2136,0.2219,0.2217,0.2291,0.2308,0.2262,0.2359,0.2357,0.2374,0.2356,0.2429,0.2439,0.2451,0.2292,0.2291,0.229,0.2289,0,0,0.1948,0.1989,0.2003,0.2023,0.2059,0.2074,0.2107,0.2132,0.2203,0.2241,0.2312,0.2342,0.2398,0.241,0.2419,0.2458,0.2519,0.2443,0.2446,0.2451,0.2675,0.2466,0.2458,0.2593,0.2596,0.2598,0.2651,0,0.1943,0.1988,0.2012,0.205,0.2073,0.2109,0.2134,0.2198,0.2258,0.2328,0.2372,0.2432,0.2426,0.2469,0.2523,0.2511,0.2556,0.25,0.2608,0.2609,0.241,0.2466,0.2289,0.2304,0.2662,0.2664,0.2666,0,0.1957,0.1981,0.2014,0.2068,0.2088,0.2107,0.2209,0.2252,0.2368,0.2414,0.2546,0.2581,0.263,0.2589,0.2694,0.2679,0.2666,0.2656,0.2661,0.2437,0.242,0.2291,0.2311,0.2685,0.2683,0.2682,0.268,0,0.1936,0.1983,0.1989,0.2017,0.2085,0.2114,0.2153,0.2301,0.2351,0.2479,0.2535,0.2677,0.2688,0.2764,0.2729,0.2742,0.2796,0.2831,0.2643,0.2628,0.2471,0.2436,0.2886,0.2886,0.2886,0.2886,0.2885,0,0.1905,0.1931,0.1977,0.2,0.2035,0.2124,0.222,0.2285,0.2396,0.2476,0.2585,0.2633,0.2729,0.2772,0.2774,0.2722,0.2866,0.2627,0.2631,0.2487,0.2454,0.2777,0.2763,0.2887,0.2887,0.2887,0.2886,0,0.1889,0.1905,0.1928,0.1992,0.2023,0.2067,0.218,0.2268,0.2376,0.2469,0.2478,0.2586,0.264,0.2709,0.2767,0.2729,0.2719,0.2654,0.2425,0.2396,0.2495,0.2486,0.25,0.2493,0.2487,0.2483,0.2479,0,0.1873,0.1888,0.1936,0.1951,0.1965,0.2054,0.212,0.2224,0.2291,0.2435,0.2424,0.2496,0.2505,0.251,0.2468,0.2453,0.2555,0.223,0.2188,0.2454,0.2459,0.2458,0.2456,0.2033,0.2026,0.202,0.2015,0,0.186,0.1869,0.1887,0.1928,0.1956,0.2014,0.2086,0.2085,0.2219,0.2275,0.2296,0.2307,0.2299,0.217,0.2103,0.2078,0.2226,0.2096,0.2501,0.2115,0.2006,0.2012,0.2029,0.1961,0.1967,0.1971,0.1974,0.1976,0.1835,0.1834,0.1862,0.1885,0.1928,0.1927,0.1924,0.1964,0.1989,0.1993,0.208,0.2031,0.2018,0.1806,0.1728,0.1672,0.1836,0.177,0.1794,0.1824,0.1716,0.1599,0.1456,0.1458,0.146,0.1462,0.1464,0,0.1793,0.181,0.1836,0.1823,0.1825,0.1871,0.1882,0.1825,0.1767,0.1791,0.1778,0.1583,0.1451,0.1459,0.1283,0.1227,0.1288,0.1174,0.1272,0.1324,0.1371,0.1247,0.0859,0.0857,0.0856,0.0854,0,0,0.1752,0.174,0.1747,0.171,0.1717,0.1658,0.1613,0.1525,0.1501,0.1393,0.1353,0.1402,0.1418,0.1143,0.1077,0.0947,0.1144,0.09,0.1387,0.1558,0.1603,0.1707,0.157,0,0,0,0,0]},{"header":{"parameterUnit":"m.s-1","parameterCategory":2,"la1":30.2991,"la2":30.254,"lo1":-89.0895,"lo2":-89.0444,"dy":0.0017,"dx":0.0017,"nx":28,"ny":28,"refTime":"2025-12-28T03:00:00:Z","depth":"2","parameterNumber":3,"parameterNumberName":"V-component_of_CURRENTS"},"data":[0,0,0,0,0,0,0,0,0,0,0,0,0,0,0,0,0,0,0,0,0,0,0,0,0,0,0,0,0,0,0,0,0,0,0,0,0,0,0,0,0,0,0,0,0,0,0,0,0,0,0,0,0,0,0,0,0,0,0.0146,0.0146,0,0.0136,0.0136,0.0136,0.0115,0.0115,0.0115,0.0115,0.0131,0.0132,0.0132,0,0,0,0,0,0,0,0,0,0,0,0,0,0.0125,0.0126,0.0146,0.0146,0.0147,0.0136,0.0136,0.0136,0.0116,0.0115,0.0115,0.0115,0.0131,0.0131,0.0132,0,0,0,0,0,0,0,0,0,0,0,0,0,0.0124,0.0126,0.0146,0.0137,0.0137,0.0136,0.0136,0.0135,0.0116,0.0115,0.0115,0.0115,0.0131,0.0131,0.0132,0.0142,0,0,0.0135,0.0135,0,0,0,0,0,0,0,0,0.0124,0.0125,0.0139,0.0138,0.0137,0.0129,0.0135,0.014,0.0116,0.0121,0.0115,0.0115,0.0135,0.0135,0.013,0.0143,0.0143,0.0135,0.0135,0.0136,0.0136,0,0,0,0,0,0,0,0.0124,0.0125,0.0139,0.0139,0.0138,0.0126,0.0126,0.0135,0.0127,0.012,0.0119,0.0123,0.0134,0.0129,0.013,0.0143,0.0135,0.0136,0.0136,0.0136,0.016,0.016,0,0,0,0,0,0,0.0133,0.0125,0.014,0.0139,0.0133,0.0127,0.0126,0.013,0.0127,0.0127,0.0123,0.0122,0.0127,0.0129,0.0131,0.0152,0.0136,0.0137,0.0137,0.016,0.016,0.016,0,0,0,0,0,0,0.0132,0.0134,0.014,0.0134,0.0135,0.0128,0.0132,0.013,0.0127,0.0129,0.0129,0.0123,0.0127,0.0129,0.0148,0.0152,0.0137,0.0138,0.016,0.016,0.016,0.0188,0,0,0,0,0,0,0.0132,0.0134,0.0135,0.0135,0.0135,0.0149,0.0132,0.013,0.0131,0.013,0.013,0.013,0.0127,0.0147,0.0149,0.0153,0.0138,0.016,0.016,0.016,0.0187,0.0189,0.0191,0,0,0,0,0,0.0131,0.0142,0.0135,0.0137,0.0138,0.015,0.0149,0.0142,0.0131,0.0137,0.0138,0.0131,0.0149,0.0149,0.0151,0.0155,0.016,0.016,0.016,0.0186,0.0189,0.0191,0,0,0,0,0,0,0.0134,0.0142,0.0134,0.0146,0.015,0.0148,0.015,0.0146,0.0148,0.0145,0.0142,0.0144,0.016,0.0154,0.0153,0.016,0.0149,0.015,0.0168,0.0171,0.0173,0.0217,0.0139,0,0,0,0,0,0.0136,0.0148,0.0148,0.016,0.0158,0.0152,0.0154,0.0152,0.0156,0.0156,0.015,0.0149,0.0162,0.0165,0.017,0.018,0.0186,0.018,0.0182,0.0184,0.022,0.0229,0.0236,0.0161,0.0161,0.0161,0,0,0.0139,0.0147,0.0152,0.0161,0.0157,0.0174,0.0152,0.016,0.0177,0.0159,0.0169,0.0161,0.0168,0.0178,0.0183,0.0175,0.0201,0.0184,0.0186,0.0222,0.0231,0.0238,0.0245,0.0161,0.0161,0.0161,0,0,0.0162,0.0157,0.0173,0.0176,0.0181,0.0188,0.0194,0.0187,0.0184,0.0196,0.0188,0.0198,0.0191,0.0208,0.0216,0.0237,0.0216,0.021,0.0256,0.0263,0.027,0.0277,0.0269,0.0274,0.0206,0.0206,0.0206,0,0.0164,0.0189,0.0179,0.0193,0.0208,0.02,0.0224,0.0224,0.0225,0.0232,0.0203,0.0216,0.0218,0.026,0.0264,0.0247,0.0233,0.0246,0.0268,0.0275,0.0281,0.0271,0.0277,0.0208,0.0208,0.0208,0.0207,0,0.0197,0.0213,0.0223,0.0246,0.0258,0.0279,0.0283,0.0289,0.0279,0.0277,0.0293,0.0286,0.0296,0.0285,0.0287,0.0325,0.0293,0.0273,0.0266,0.0291,0.0278,0.0283,0.021,0.0209,0.0209,0.0209,0,0,0.021,0.0242,0.0244,0.0268,0.0289,0.031,0.0338,0.037,0.0403,0.0368,0.0403,0.0407,0.0382,0.0392,0.0374,0.0387,0.0409,0.0348,0.0348,0.0349,0.0406,0.0366,0.0368,0.0376,0.0378,0.0379,0.037,0,0.0241,0.0287,0.0298,0.0354,0.038,0.0389,0.0429,0.045,0.0456,0.048,0.046,0.0486,0.0425,0.0435,0.043,0.0431,0.0429,0.0413,0.0377,0.0376,0.0346,0.0376,0.0373,0.0363,0.0376,0.0377,0.0377,0,0.0269,0.0302,0.0357,0.0425,0.0437,0.0473,0.0542,0.0572,0.0601,0.0605,0.0599,0.0577,0.0596,0.054,0.0525,0.0506,0.0466,0.0451,0.0449,0.042,0.035,0.0346,0.0373,0.0387,0.0386,0.0385,0.0385,0,0.0291,0.0348,0.0403,0.0418,0.0486,0.0519,0.0559,0.0603,0.0652,0.0684,0.0714,0.0696,0.0702,0.0653,0.0585,0.0559,0.0565,0.052,0.0443,0.0438,0.0439,0.0432,0.052,0.052,0.052,0.052,0.052,0,0.0327,0.0368,0.0417,0.0443,0.0523,0.055,0.0631,0.0672,0.0743,0.0813,0.0769,0.0812,0.0732,0.0702,0.0627,0.0549,0.0581,0.0478,0.0447,0.0443,0.0436,0.0465,0.0458,0.0519,0.0519,0.052,0.052,0,0.0343,0.0373,0.0443,0.0513,0.0532,0.0588,0.0681,0.075,0.0801,0.0893,0.0912,0.0916,0.0871,0.0773,0.0716,0.0612,0.0551,0.0509,0.0501,0.0469,0.0404,0.04,0.0437,0.0436,0.0435,0.0434,0.0433,0,0.0359,0.0392,0.0476,0.0526,0.0559,0.0629,0.0691,0.077,0.0852,0.0953,0.1012,0.0997,0.0978,0.085,0.0701,0.0561,0.0543,0.0459,0.0423,0.0438,0.0403,0.04,0.0396,0.0421,0.0421,0.042,0.042,0,0.0396,0.0425,0.0481,0.0569,0.0641,0.0725,0.0814,0.0895,0.0998,0.1069,0.1157,0.1152,0.1012,0.0866,0.0663,0.0564,0.048,0.0441,0.0484,0.0437,0.0421,0.0387,0.0385,0.0414,0.0415,0.0415,0.0416,0.0416,0.0423,0.047,0.0542,0.0629,0.0719,0.0832,0.0899,0.1001,0.1123,0.1232,0.1229,0.1196,0.1044,0.0764,0.0605,0.043,0.0444,0.037,0.0374,0.0377,0.0371,0.0354,0.0333,0.0333,0.0333,0.0333,0.0333,0,0.0464,0.0512,0.0597,0.0715,0.0826,0.0857,0.0997,0.1065,0.1187,0.1244,0.1275,0.1099,0.0938,0.0759,0.0496,0.0346,0.0337,0.0291,0.0318,0.0324,0.0329,0.0322,0.027,0.0269,0.0269,0.0268,0,0,0.049,0.0572,0.0611,0.0784,0.0869,0.0992,0.1071,0.116,0.1215,0.1246,0.1211,0.1167,0.0967,0.0761,0.0566,0.0418,0.0401,0.0381,0.0447,0.0509,0.0516,0.039,0.0386,0,0,0,0,0]}],[{"header":{"parameterUnit":"m.s-1","parameterCategory":2,"la1":30.2991,"la2":30.254,"lo1":-89.0895,"lo2":-89.0444,"dy":0.0017,"dx":0.0017,"nx":28,"ny":28,"refTime":"2025-12-28T03:00:00:Z","depth":"4","parameterNumber":2,"parameterNumberName":"U-component_of_CURRENTS"},"data":[0,0,0,0,0,0,0,0,0,0,0,0,0,0,0,0,0,0,0,0,0,0,0,0,0,0,0,0,0,0,0,0,0,0,0,0,0,0,0,0,0,0,0,0,0,0,0,0,0,0,0,0,0,0,0,0,0,0,0.0746,0.0746,0,0.0716,0.0715,0.0715,0.0728,0.0729,0.073,0.073,0.0531,0.0526,0.052,0,0,0,0,0,0,0,0,0,0,0,0,0,0.0794,0.0793,0.0746,0.0746,0.0746,0.0716,0.0715,0.0715,0.0728,0.0729,0.073,0.0731,0.0533,0.0526,0.0519,0,0,0,0,0,0,0,0,0,0,0,0,0,0.0769,0.0793,0.0746,0.0749,0.0749,0.0716,0.0715,0.0715,0.0728,0.0729,0.073,0.0731,0.0536,0.0527,0.0518,0.0439,0,0,0.049,0.0487,0,0,0,0,0,0,0,0,0.077,0.0767,0.0749,0.0749,0.0749,0.0727,0.0659,0.0614,0.0727,0.0735,0.073,0.0732,0.0581,0.0568,0.0561,0.0429,0.0421,0.049,0.0484,0.048,0.0478,0,0,0,0,0,0,0,0.0772,0.0768,0.0734,0.0748,0.0748,0.0744,0.0742,0.0652,0.0648,0.0734,0.0735,0.0733,0.058,0.057,0.0556,0.0418,0.049,0.0482,0.0476,0.0473,0.0364,0.0366,0,0,0,0,0,0,0.0776,0.077,0.0735,0.0733,0.0763,0.0743,0.074,0.0732,0.0653,0.0643,0.0732,0.0733,0.0585,0.0567,0.0549,0.0558,0.048,0.0472,0.0467,0.0362,0.0365,0.0367,0,0,0,0,0,0,0.0778,0.0773,0.0736,0.0752,0.0747,0.0741,0.0732,0.0731,0.0748,0.0653,0.064,0.0752,0.0585,0.0562,0.0519,0.0546,0.0468,0.046,0.0359,0.0362,0.0366,0.0505,0,0,0,0,0,0,0.0779,0.0774,0.0774,0.0752,0.0746,0.073,0.0731,0.073,0.0743,0.0745,0.0664,0.0647,0.0585,0.0533,0.051,0.0532,0.0453,0.0355,0.036,0.0365,0.0497,0.0513,0.0527,0,0,0,0,0,0.0781,0.0773,0.0774,0.077,0.0745,0.073,0.0727,0.0726,0.0743,0.0747,0.072,0.065,0.0548,0.0527,0.0499,0.052,0.0353,0.0359,0.0364,0.0491,0.051,0.0527,0,0,0,0,0,0,0.079,0.0772,0.0774,0.0761,0.0755,0.0733,0.0739,0.0741,0.0725,0.0733,0.0659,0.0639,0.0621,0.0553,0.0532,0.0511,0.0446,0.0447,0.0552,0.0569,0.0584,0.0586,0.0445,0,0,0,0,0,0.0792,0.0791,0.0771,0.0767,0.0767,0.076,0.0758,0.0757,0.0738,0.0736,0.069,0.0649,0.0617,0.0582,0.0534,0.0492,0.0485,0.0499,0.0514,0.0526,0.0514,0.0588,0.0609,0.0386,0.0386,0.0386,0,0,0.0798,0.0788,0.0789,0.0771,0.0771,0.075,0.0763,0.0767,0.0763,0.0707,0.07,0.0688,0.0622,0.0608,0.0592,0.0552,0.0587,0.0533,0.0544,0.0525,0.0597,0.0618,0.0638,0.039,0.0389,0.0389,0,0,0.0798,0.0802,0.0796,0.0786,0.0783,0.0768,0.0776,0.077,0.0789,0.0773,0.0765,0.0781,0.0694,0.0686,0.0661,0.0719,0.0672,0.071,0.0764,0.0839,0.0857,0.0874,0.0899,0.0917,0.0708,0.0708,0.0708,0,0.0809,0.079,0.0794,0.0778,0.0769,0.0778,0.0761,0.0769,0.0756,0.0783,0.0784,0.0779,0.0732,0.0742,0.0783,0.0749,0.0775,0.07,0.0859,0.0875,0.0889,0.0912,0.0929,0.0715,0.0715,0.0714,0.0713,0,0.078,0.078,0.0782,0.0759,0.0747,0.0744,0.074,0.0751,0.0779,0.0807,0.086,0.0847,0.085,0.0858,0.0827,0.0913,0.0894,0.0881,0.0815,0.0921,0.0937,0.0953,0.0726,0.0723,0.0721,0.0719,0,0,0.0785,0.0765,0.0773,0.0767,0.0741,0.0731,0.0727,0.0745,0.0762,0.0821,0.089,0.0899,0.0956,0.0935,0.0938,0.0999,0.1136,0.0993,0.0993,0.1019,0.1287,0.1141,0.1143,0.1174,0.1178,0.118,0.126,0,0.0774,0.0749,0.0734,0.0717,0.0705,0.0701,0.0696,0.072,0.0748,0.082,0.0914,0.0975,0.0968,0.1008,0.1077,0.1123,0.1184,0.1113,0.1178,0.1178,0.1038,0.1159,0.1191,0.1272,0.1275,0.1278,0.128,0,0.0749,0.0741,0.0723,0.0712,0.0708,0.0698,0.0694,0.0694,0.0785,0.0821,0.0923,0.1009,0.1135,0.1129,0.126,0.1227,0.1268,0.1299,0.1303,0.112,0.1062,0.1142,0.1307,0.1305,0.1303,0.1301,0.13,0,0.0748,0.0737,0.073,0.0721,0.0698,0.0711,0.071,0.0731,0.0762,0.0871,0.0938,0.107,0.1184,0.127,0.134,0.1334,0.1475,0.1468,0.1364,0.1353,0.1395,0.1376,0.1569,0.1569,0.1569,0.1569,0.1569,0,0.0725,0.0728,0.0748,0.074,0.0748,0.0738,0.0757,0.0745,0.082,0.089,0.0988,0.1069,0.1241,0.1347,0.1383,0.1407,0.1511,0.1385,0.1377,0.1451,0.1438,0.1406,0.1386,0.1572,0.1571,0.157,0.157,0,0.0704,0.072,0.0719,0.0732,0.0747,0.076,0.08,0.0809,0.086,0.0958,0.1034,0.1156,0.1261,0.1357,0.1486,0.1448,0.1483,0.1458,0.1507,0.1499,0.1303,0.129,0.1379,0.1374,0.1371,0.1368,0.1365,0,0.0676,0.0678,0.0715,0.0725,0.074,0.0776,0.0791,0.0835,0.0854,0.0985,0.1049,0.1207,0.1279,0.1331,0.1404,0.1439,0.1418,0.1415,0.1385,0.1307,0.1292,0.1283,0.1275,0.136,0.1359,0.1358,0.1357,0,0.0616,0.0652,0.0647,0.0679,0.0717,0.0733,0.078,0.0816,0.0884,0.0977,0.1054,0.1128,0.1223,0.1284,0.1301,0.1324,0.1411,0.1378,0.1386,0.1358,0.1285,0.1271,0.1267,0.1345,0.1346,0.1348,0.1348,0,0.0581,0.0578,0.0595,0.0615,0.0646,0.0664,0.0705,0.0757,0.0809,0.097,0.1001,0.1118,0.1232,0.1222,0.1242,0.1243,0.1238,0.1199,0.1217,0.1231,0.1139,0.1022,0.101,0,0,0,0,0,0.0544,0.0533,0.0524,0.0539,0.0555,0.0589,0.0663,0.0715,0.085,0.0881,0.0935,0.1011,0.106,0.1102,0.1077,0.1159,0.1225,0.112,0.1186,0.1276,0.129,0.1191,0,0,0,0,0,0,0.0525,0.0514,0.0502,0.0457,0.0462,0.0486,0.0546,0.0639,0.0655,0.08,0.0831,0.0932,0.0987,0.107,0.1055,0.1066,0.1081,0.1186,0.1183,0.1268,0.1281,0.1293,0.1195,0,0,0,0,0]},{"header":{"parameterUnit":"m.s-1","parameterCategory":2,"la1":30.2991,"la2":30.254,"lo1":-89.0895,"lo2":-89.0444,"dy":0.0017,"dx":0.0017,"nx":28,"ny":28,"refTime":"2025-12-28T03:00:00:Z","depth":"4","parameterNumber":3,"parameterNumberName":"V-component_of_CURRENTS"},"data":[0,0,0,0,0,0,0,0,0,0,0,0,0,0,0,0,0,0,0,0,0,0,0,0,0,0,0,0,0,0,0,0,0,0,0,0,0,0,0,0,0,0,0,0,0,0,0,0,0,0,0,0,0,0,0,0,0,0,0.028,0.0281,0,0.031,0.031,0.031,0.0309,0.0309,0.0309,0.0309,0.0417,0.042,0.0423,0,0,0,0,0,0,0,0,0,0,0,0,0,0.0221,0.0222,0.028,0.0281,0.0281,0.031,0.031,0.031,0.0309,0.0309,0.0309,0.0309,0.0416,0.042,0.0424,0,0,0,0,0,0,0,0,0,0,0,0,0,0.0245,0.0222,0.028,0.0287,0.0288,0.031,0.031,0.031,0.0309,0.0309,0.0309,0.0309,0.0415,0.042,0.0424,0.0455,0,0,0.0438,0.044,0,0,0,0,0,0,0,0,0.0244,0.0247,0.0285,0.0286,0.0288,0.0309,0.0329,0.0364,0.0309,0.0298,0.0309,0.0309,0.0391,0.0397,0.0397,0.0461,0.0465,0.0438,0.0441,0.0443,0.0444,0,0,0,0,0,0,0,0.0242,0.0246,0.0289,0.0286,0.0287,0.0288,0.0291,0.0335,0.0344,0.0299,0.03,0.0308,0.0391,0.0393,0.04,0.0467,0.0438,0.0442,0.0445,0.0447,0.0531,0.053,0,0,0,0,0,0,0.0245,0.0244,0.0288,0.029,0.0268,0.029,0.0293,0.0299,0.0342,0.0348,0.0308,0.0308,0.0385,0.0395,0.0404,0.0442,0.0443,0.0447,0.045,0.0531,0.0531,0.053,0,0,0,0,0,0,0.0244,0.0249,0.0287,0.027,0.0276,0.0291,0.0299,0.03,0.0307,0.0349,0.0356,0.0314,0.0386,0.0398,0.0436,0.0446,0.0449,0.0453,0.0532,0.0531,0.0531,0.0519,0,0,0,0,0,0,0.0242,0.0248,0.0256,0.0271,0.0277,0.0298,0.0299,0.0301,0.0313,0.0313,0.0356,0.0365,0.0386,0.0429,0.0441,0.0452,0.0457,0.0532,0.0532,0.0531,0.052,0.0518,0.0516,0,0,0,0,0,0.024,0.0252,0.0256,0.0261,0.0286,0.0299,0.0301,0.031,0.0314,0.0315,0.0339,0.0364,0.0431,0.0433,0.0446,0.046,0.0533,0.0532,0.0531,0.052,0.0518,0.0516,0,0,0,0,0,0,0.0229,0.0254,0.0258,0.0277,0.0286,0.03,0.0309,0.0314,0.0332,0.034,0.037,0.0381,0.0413,0.0436,0.0436,0.0476,0.0483,0.0484,0.047,0.0468,0.0466,0.0475,0.046,0,0,0,0,0,0.0231,0.0249,0.0264,0.028,0.0285,0.0297,0.0305,0.0313,0.0332,0.0339,0.0365,0.0393,0.0419,0.0442,0.0467,0.0504,0.0498,0.0515,0.0513,0.0511,0.0525,0.0505,0.0503,0.0527,0.0527,0.0527,0,0,0.0233,0.025,0.026,0.0279,0.0288,0.0305,0.0301,0.0318,0.0335,0.0353,0.0382,0.0393,0.0424,0.0451,0.0469,0.0475,0.0497,0.051,0.0509,0.0523,0.0504,0.0502,0.05,0.0526,0.0526,0.0526,0,0,0.0245,0.0257,0.0274,0.0286,0.0308,0.0316,0.0322,0.0336,0.0343,0.037,0.038,0.0391,0.044,0.0452,0.0469,0.0475,0.0483,0.0483,0.0494,0.0474,0.0472,0.047,0.0441,0.0437,0.0487,0.0487,0.0487,0,0.0246,0.0273,0.028,0.0299,0.0316,0.0322,0.0343,0.0353,0.0377,0.0386,0.038,0.0416,0.0439,0.0469,0.0466,0.0474,0.0461,0.0502,0.0472,0.047,0.0469,0.044,0.0435,0.0486,0.0486,0.0486,0.0486,0,0.0272,0.0294,0.0305,0.0335,0.0347,0.0368,0.0384,0.0397,0.0405,0.0409,0.0426,0.0434,0.0456,0.0455,0.0471,0.0475,0.0467,0.0467,0.0479,0.0466,0.0435,0.0431,0.0485,0.0486,0.0486,0.0486,0,0,0.0272,0.0315,0.032,0.0343,0.0371,0.0388,0.0415,0.0436,0.0448,0.0453,0.047,0.0483,0.0472,0.0489,0.0492,0.0478,0.0447,0.0474,0.0474,0.0448,0.0395,0.0379,0.0373,0.0441,0.044,0.044,0.0371,0,0.0291,0.0337,0.0351,0.0396,0.0421,0.0437,0.0458,0.0478,0.0479,0.0493,0.0492,0.0511,0.049,0.0503,0.048,0.0465,0.0438,0.0465,0.041,0.0409,0.0399,0.0368,0.0439,0.0368,0.0367,0.0366,0.0366,0,0.031,0.0342,0.0388,0.0434,0.0444,0.0471,0.0503,0.0527,0.0541,0.0537,0.0537,0.0539,0.0539,0.0519,0.0461,0.0479,0.044,0.0413,0.0409,0.0402,0.0386,0.0388,0.0358,0.0359,0.0359,0.036,0.036,0,0.0313,0.0368,0.0409,0.0427,0.0475,0.0501,0.053,0.0543,0.0569,0.058,0.0592,0.0565,0.0575,0.0517,0.046,0.0465,0.0384,0.0381,0.0321,0.0319,0.0361,0.0364,0.0332,0.0332,0.0332,0.0332,0.0333,0,0.0329,0.0364,0.042,0.0445,0.0497,0.0524,0.0566,0.058,0.0609,0.0639,0.0626,0.063,0.0576,0.0531,0.0464,0.0373,0.0378,0.032,0.0301,0.0354,0.0357,0.0356,0.036,0.033,0.033,0.0331,0.0331,0,0.0329,0.0363,0.0419,0.048,0.0504,0.0548,0.0617,0.0644,0.0659,0.0701,0.0722,0.0692,0.0622,0.0546,0.0449,0.0385,0.03,0.0266,0.0319,0.0305,0.0245,0.0249,0.0194,0.0193,0.0192,0.0191,0.019,0,0.0333,0.0363,0.0445,0.0486,0.0521,0.0588,0.0632,0.0672,0.0701,0.0728,0.0752,0.0715,0.0679,0.0513,0.0426,0.0283,0.0266,0.0218,0.024,0.0244,0.0232,0.0237,0.0242,0.0189,0.0189,0.0188,0.0188,0,0.0342,0.0374,0.0419,0.05,0.0564,0.0637,0.0702,0.0727,0.0773,0.079,0.0769,0.0709,0.0625,0.0504,0.0395,0.0294,0.0249,0.0208,0.0209,0.023,0.0238,0.0227,0.0233,0.0185,0.0185,0.0186,0.0186,0,0.0344,0.0381,0.0439,0.0513,0.0592,0.0666,0.0702,0.074,0.0775,0.08,0.0783,0.0705,0.066,0.0508,0.0403,0.0306,0.0287,0.0257,0.0256,0.0258,0.03,0.0321,0.0275,0,0,0,0,0,0.0351,0.0393,0.045,0.0535,0.0611,0.066,0.0739,0.0769,0.0807,0.0795,0.0792,0.0712,0.057,0.0504,0.0403,0.0387,0.027,0.0265,0.0235,0.0167,0.0171,0.0208,0,0,0,0,0,0,0.0355,0.0409,0.0442,0.0534,0.0592,0.0682,0.0735,0.0767,0.0753,0.077,0.0688,0.0674,0.0526,0.0619,0.0393,0.0367,0.0332,0.0204,0.0202,0.0165,0.0168,0.0171,0.0211,0,0,0,0,0]}]]